JCSAT-RA (JCSAT-12)

Last updated on Sept. 30, 2020, 5:50 a.m. UTC

1 35755U 09044A   20273.88921986 -.00000048  00000-0  00000-0 0  9990
2 35755   0.0305 112.9732 0002040  64.9923 320.1410  1.00272514 40691
UTC
Height (km)
Latitude
Longitude
Inclination
Orbital Period
UTC large
Height (km)
Speed (km/s)
/
Latitude / Longitude
Inclination (degrees)
Orbital Period (minutes)
Azimuth
Elevation
Range (km)
Doppler Factor
iOS Compass Heading
iOS Angle

Next 30 passes for location: Hong Kong

Rise time Rise Azimuth (degrees) Set time Set Azimuth (degrees) Duration Max altitude (degrees)

No matching passes for this satellites